[[{"header":{"parameterUnit":"m.s-1","parameterCategory":1,"la1":30.2991,"la2":30.254,"lo1":-89.0895,"lo2":-89.0444,"dy":0.0017,"dx":0.0017,"nx":28,"ny":28,"refTime":"2025-03-18T09:00:00:Z","depth":0,"parameterNumber":2,"parameterNumberName":"U-component_of_WINDS"},"data":[0,0,0,0,0,0,0,0,0,0,0,0,0,0,0,0,0,0,0,0,0,0,0,0,0,0,0,0,0,0,0,0,0,0,0,0,0,0,0,0,0,0,0,0,0,0,0,0,0,0,0,0,0,0,0,0,0,0,-0.8454,-0.8454,0,-0.8456,-0.8456,-0.8456,-0.8461,-0.8461,-0.8461,-0.8461,-0.8463,-0.8463,-0.8463,0,0,0,0,0,0,0,0,0,0,0,0,0,-0.8456,-0.8456,-0.8454,-0.8454,-0.8454,-0.8456,-0.8456,-0.8456,-0.8461,-0.8461,-0.8461,-0.8461,-0.8463,-0.8463,-0.8463,0,0,0,0,0,0,0,0,0,0,0,0,0,-0.8456,-0.8456,-0.8454,-0.8456,-0.8457,-0.8456,-0.8456,-0.8456,-0.8461,-0.8461,-0.8461,-0.8461,-0.8463,-0.8463,-0.8463,-0.846,0,0,-0.8463,-0.8463,0,0,0,0,0,0,0,0,-0.8456,-0.8456,-0.8456,-0.8456,-0.8457,-0.8458,-0.8457,-0.8457,-0.8461,-0.8459,-0.8461,-0.8461,-0.8462,-0.8462,-0.8462,-0.846,-0.846,-0.8463,-0.8463,-0.8463,-0.8463,0,0,0,0,0,0,0,-0.8456,-0.8456,-0.8454,-0.8456,-0.8456,-0.8458,-0.8458,-0.8457,-0.8459,-0.8459,-0.846,-0.846,-0.8462,-0.8462,-0.8462,-0.846,-0.8463,-0.8463,-0.8463,-0.8463,-0.8457,-0.8457,0,0,0,0,0,0,-0.8455,-0.8456,-0.8454,-0.8455,-0.8457,-0.8458,-0.8458,-0.8457,-0.8459,-0.846,-0.846,-0.846,-0.8462,-0.8462,-0.8462,-0.8459,-0.8463,-0.8463,-0.8463,-0.8457,-0.8457,-0.8457,0,0,0,0,0,0,-0.8455,-0.8455,-0.8454,-0.8455,-0.8455,-0.8458,-0.8457,-0.8457,-0.8457,-0.846,-0.846,-0.8459,-0.8462,-0.8462,-0.8461,-0.8459,-0.8463,-0.8463,-0.8458,-0.8457,-0.8457,-0.8452,0,0,0,0,0,0,-0.8455,-0.8455,-0.8453,-0.8455,-0.8455,-0.8453,-0.8457,-0.8457,-0.8457,-0.8458,-0.8459,-0.846,-0.8462,-0.8461,-0.8461,-0.8459,-0.8463,-0.8458,-0.8457,-0.8457,-0.8452,-0.8452,-0.8451,0,0,0,0,0,-0.8455,-0.8452,-0.8453,-0.8453,-0.8453,-0.8452,-0.8453,-0.8455,-0.8457,-0.8456,-0.8457,-0.846,-0.8459,-0.8461,-0.846,-0.8459,-0.8458,-0.8457,-0.8457,-0.8453,-0.8452,-0.8451,0,0,0,0,0,0,-0.845,-0.8452,-0.8454,-0.8451,-0.8451,-0.8453,-0.8452,-0.8454,-0.8454,-0.8454,-0.8458,-0.8458,-0.8456,-0.8457,-0.8459,-0.8456,-0.8459,-0.8459,-0.8455,-0.8455,-0.8454,-0.8454,-0.8463,0,0,0,0,0,-0.8448,-0.8447,-0.8449,-0.8446,-0.8447,-0.8449,-0.8449,-0.8451,-0.8452,-0.8452,-0.8454,-0.8455,-0.8455,-0.8455,-0.8455,-0.8453,-0.8453,-0.8451,-0.8451,-0.845,-0.845,-0.8449,-0.8449,-0.8456,-0.8456,-0.8456,0,0,-0.8445,-0.8446,-0.8445,-0.8445,-0.8446,-0.8445,-0.8449,-0.8448,-0.8448,-0.8452,-0.8451,-0.8452,-0.8454,-0.8452,-0.8451,-0.8453,-0.8448,-0.845,-0.8449,-0.8449,-0.8449,-0.8448,-0.8448,-0.8456,-0.8456,-0.8456,0,0,-0.8438,-0.8439,-0.8437,-0.8438,-0.8439,-0.8441,-0.844,-0.8442,-0.8443,-0.8442,-0.8445,-0.8445,-0.8445,-0.8446,-0.8447,-0.8442,-0.8445,-0.8442,-0.8439,-0.8438,-0.8438,-0.8437,-0.8436,-0.8436,-0.8442,-0.8442,-0.8442,0,-0.8434,-0.8433,-0.8435,-0.8434,-0.8435,-0.8439,-0.8437,-0.8438,-0.8439,-0.8439,-0.8441,-0.8442,-0.8443,-0.8442,-0.8441,-0.8441,-0.8441,-0.8442,-0.8438,-0.8437,-0.8437,-0.8436,-0.8435,-0.8442,-0.8442,-0.8442,-0.8442,0,-0.8428,-0.8427,-0.8425,-0.8426,-0.8427,-0.8425,-0.8428,-0.8428,-0.843,-0.8432,-0.8432,-0.8433,-0.8434,-0.8434,-0.8436,-0.8434,-0.8435,-0.8437,-0.844,-0.8436,-0.8435,-0.8434,-0.8441,-0.8441,-0.8441,-0.8442,0,0,-0.8417,-0.8421,-0.842,-0.8421,-0.8423,-0.8423,-0.8422,-0.8423,-0.8423,-0.8424,-0.8424,-0.8424,-0.8427,-0.8427,-0.843,-0.8429,-0.8426,-0.8432,-0.8432,-0.8431,-0.8424,-0.8423,-0.8422,-0.8428,-0.8428,-0.8428,-0.8424,0,-0.8412,-0.841,-0.8413,-0.8411,-0.8411,-0.8415,-0.8414,-0.8416,-0.8418,-0.8418,-0.842,-0.8421,-0.8423,-0.8424,-0.8424,-0.8426,-0.8425,-0.8427,-0.8428,-0.8428,-0.8427,-0.8421,-0.8419,-0.8416,-0.8424,-0.8424,-0.8424,0,-0.8404,-0.8405,-0.8403,-0.8406,-0.8406,-0.8406,-0.8407,-0.8407,-0.841,-0.8411,-0.8412,-0.8415,-0.8415,-0.8418,-0.8419,-0.842,-0.8421,-0.8422,-0.8422,-0.8422,-0.8425,-0.8422,-0.8415,-0.8415,-0.8423,-0.8423,-0.8423,0,-0.8397,-0.8398,-0.8397,-0.8398,-0.8401,-0.8401,-0.8402,-0.8405,-0.8405,-0.8407,-0.8407,-0.8409,-0.841,-0.8411,-0.8415,-0.8417,-0.8415,-0.8418,-0.8417,-0.8417,-0.8416,-0.8416,-0.841,-0.8417,-0.8417,-0.8417,-0.8417,0,-0.8391,-0.8389,-0.8394,-0.8394,-0.8393,-0.8396,-0.8395,-0.8397,-0.8399,-0.84,-0.8404,-0.8404,-0.8408,-0.8409,-0.8412,-0.8412,-0.8413,-0.8414,-0.8415,-0.8414,-0.8414,-0.8415,-0.8415,-0.8416,-0.8416,-0.8417,-0.8417,0,-0.8383,-0.8386,-0.8385,-0.8389,-0.8389,-0.8389,-0.8392,-0.8392,-0.8394,-0.8395,-0.8395,-0.8399,-0.84,-0.8404,-0.8406,-0.8408,-0.8408,-0.8409,-0.8407,-0.8408,-0.8406,-0.8407,-0.84,-0.84,-0.8407,-0.8407,-0.8407,0,-0.8378,-0.8377,-0.8381,-0.8381,-0.8383,-0.8383,-0.8384,-0.8388,-0.8389,-0.8392,-0.8392,-0.8393,-0.8395,-0.8397,-0.8401,-0.8403,-0.8404,-0.8402,-0.8405,-0.8404,-0.8405,-0.8405,-0.8405,-0.8401,-0.8401,-0.8401,-0.8401,0,-0.837,-0.8372,-0.8373,-0.8375,-0.8376,-0.8377,-0.8379,-0.8379,-0.8384,-0.8384,-0.8386,-0.8387,-0.839,-0.8392,-0.8395,-0.8397,-0.84,-0.84,-0.84,-0.8399,-0.8398,-0.8399,-0.8406,-0.84,-0.84,-0.84,-0.84,-0.84,-0.8364,-0.8364,-0.8366,-0.8368,-0.8369,-0.8371,-0.8372,-0.8374,-0.8376,-0.8378,-0.838,-0.8382,-0.8385,-0.8389,-0.8391,-0.8392,-0.8394,-0.8394,-0.8394,-0.8393,-0.8393,-0.8398,-0.8393,-0.8393,-0.8393,-0.8393,-0.8393,0,-0.8357,-0.8359,-0.836,-0.8362,-0.8363,-0.8366,-0.8369,-0.8369,-0.8371,-0.8373,-0.8375,-0.8377,-0.8379,-0.8383,-0.8386,-0.8386,-0.8388,-0.8387,-0.8387,-0.8387,-0.8391,-0.8391,-0.8385,-0.8385,-0.8385,-0.8385,-0.8385,-0.8385,-0.8353,-0.8353,-0.8355,-0.8356,-0.8358,-0.836,-0.8361,-0.8363,-0.8365,-0.8367,-0.8369,-0.8371,-0.8375,-0.8378,-0.838,-0.8381,-0.8382,-0.8381,-0.8382,-0.8386,-0.8387,-0.8388,-0.8388,-0.8381,-0.8381,-0.8378,-0.8378,-0.8378]},{"header":{"parameterUnit":"m.s-1","parameterCategory":1,"la1":30.2991,"la2":30.254,"lo1":-89.0895,"lo2":-89.0444,"dy":0.0017,"dx":0.0017,"nx":28,"ny":28,"refTime":"2025-03-18T09:00:00:Z","depth":0,"parameterNumber":3,"parameterNumberName":"V-component_of_WINDS"},"data":[0,0,0,0,0,0,0,0,0,0,0,0,0,0,0,0,0,0,0,0,0,0,0,0,0,0,0,0,0,0,0,0,0,0,0,0,0,0,0,0,0,0,0,0,0,0,0,0,0,0,0,0,0,0,0,0,0,0,7.3663,7.3665,0,7.3789,7.379,7.3792,7.3754,7.3751,7.3749,7.3746,7.3867,7.3872,7.3878,0,0,0,0,0,0,0,0,0,0,0,0,0,7.3382,7.3388,7.3663,7.3665,7.3666,7.3789,7.379,7.3792,7.3754,7.3751,7.3748,7.3745,7.3865,7.3872,7.3878,0,0,0,0,0,0,0,0,0,0,0,0,0,7.3505,7.3389,7.3663,7.3663,7.3664,7.3788,7.379,7.3792,7.3755,7.3751,7.3747,7.3743,7.3863,7.3871,7.3879,7.401,0,0,7.3905,7.3909,0,0,0,0,0,0,0,0,7.3499,7.3516,7.3661,7.3663,7.3664,7.3752,7.3735,7.3865,7.3756,7.372,7.3746,7.3742,7.3831,7.3842,7.3874,7.4015,7.402,7.3906,7.3911,7.3915,7.3917,0,0,0,0,0,0,0,7.349,7.351,7.3713,7.3663,7.3665,7.3653,7.3666,7.376,7.3796,7.3723,7.372,7.3736,7.3831,7.3866,7.3876,7.4022,7.3906,7.3913,7.3919,7.3922,7.4273,7.4277,0,0,0,0,0,0,7.3482,7.3503,7.3709,7.3716,7.357,7.3661,7.3676,7.3728,7.3795,7.3801,7.3739,7.3734,7.3853,7.3867,7.3881,7.4035,7.3915,7.3923,7.3927,7.4269,7.4274,7.4279,0,0,0,0,0,0,7.3476,7.35,7.3704,7.3609,7.3634,7.367,7.3728,7.3732,7.3767,7.3807,7.3813,7.3769,7.3851,7.3869,7.3978,7.4039,7.3926,7.3934,7.4264,7.427,7.4276,7.4347,0,0,0,0,0,0,7.3468,7.3498,7.355,7.3611,7.364,7.3801,7.3732,7.3737,7.3782,7.3776,7.3836,7.3842,7.3849,7.3965,7.3986,7.4048,7.3941,7.4258,7.4267,7.4274,7.4339,7.4355,7.4368,0,0,0,0,0,7.3458,7.3564,7.3553,7.3578,7.3706,7.3805,7.3821,7.3829,7.3787,7.3838,7.3864,7.384,7.4029,7.3977,7.4,7.4066,7.4255,7.4264,7.4274,7.4332,7.4351,7.4368,0,0,0,0,0,0,7.3508,7.3572,7.3561,7.3691,7.3743,7.3799,7.3863,7.385,7.3913,7.3904,7.3909,7.3923,7.4034,7.4061,7.4001,7.4193,7.4135,7.415,7.4172,7.419,7.4205,7.4195,7.3948,0,0,0,0,0,7.3534,7.3612,7.3663,7.3773,7.38,7.3827,7.3871,7.3872,7.3926,7.3947,7.3981,7.4031,7.4101,7.4148,7.4215,7.4343,7.4354,7.4399,7.4414,7.4426,7.4438,7.4504,7.4524,7.431,7.431,7.431,0,0,7.3589,7.3634,7.3682,7.3784,7.3825,7.3902,7.3846,7.3931,7.3987,7.3959,7.4064,7.4091,7.4147,7.4265,7.4319,7.4291,7.4499,7.4438,7.4447,7.4453,7.4516,7.4536,7.4554,7.4317,7.4315,7.4314,0,0,7.3728,7.3771,7.3866,7.3908,7.3971,7.3989,7.4011,7.4069,7.4086,7.4192,7.4172,7.4238,7.436,7.44,7.4437,7.4589,7.4569,7.4611,7.4686,7.4751,7.4768,7.4783,7.4834,7.4853,7.4623,7.4623,7.4623,0,7.3787,7.3906,7.3915,7.4002,7.4046,7.4026,7.412,7.4159,7.424,7.4269,7.4237,7.4389,7.4426,7.4552,7.4589,7.462,7.4643,7.4603,7.4765,7.478,7.4794,7.4843,7.4863,7.4628,7.4627,7.4627,7.4626,0,7.3974,7.4056,7.4125,7.4206,7.4257,7.4347,7.4367,7.4417,7.4414,7.4434,7.454,7.4584,7.4658,7.4688,7.4686,7.4814,7.4794,7.4764,7.4705,7.4819,7.4865,7.4884,7.4634,7.4633,7.4631,7.463,0,0,7.4147,7.4232,7.4257,7.4292,7.436,7.4422,7.4509,7.4585,7.4626,7.4682,7.4753,7.4857,7.4829,7.487,7.4872,7.4929,7.5044,7.4891,7.4892,7.4916,7.5184,7.5204,7.5226,7.5031,7.5035,7.5038,7.5178,0,7.429,7.4447,7.4457,7.4597,7.4671,7.4653,7.4729,7.4776,7.4797,7.486,7.4882,7.4954,7.4914,7.4938,7.4994,7.5018,7.5097,7.5008,7.5094,7.5097,7.5078,7.5251,7.5274,7.5404,7.5196,7.5199,7.5202,0,7.4478,7.4541,7.4689,7.4745,7.4776,7.4844,7.4913,7.4975,7.5027,7.5038,7.5084,7.5077,7.5163,7.5103,7.522,7.5159,7.5194,7.5211,7.5216,7.5223,7.5155,7.5259,7.5446,7.5464,7.5231,7.5228,7.5226,0,7.4586,7.4708,7.4812,7.4843,7.4911,7.4959,7.4989,7.5038,7.5082,7.5141,7.5168,7.5236,7.5272,7.5323,7.5333,7.5289,7.5449,7.539,7.5457,7.5457,7.549,7.5488,7.5682,7.5517,7.5517,7.5517,7.5516,0,7.4743,7.4834,7.4862,7.4925,7.5025,7.5035,7.5133,7.5159,7.5202,7.5268,7.5256,7.5318,7.5328,7.5391,7.54,7.5493,7.551,7.5519,7.5519,7.5519,7.5517,7.5541,7.5531,7.5522,7.5521,7.552,7.5519,0,7.4881,7.4904,7.5015,7.507,7.5086,7.5157,7.5203,7.5262,7.5281,7.5364,7.5384,7.5413,7.5486,7.5502,7.5589,7.5594,7.5705,7.5697,7.5687,7.5686,7.5751,7.5744,7.5966,7.5994,7.5813,7.5814,7.5816,0,7.4978,7.5048,7.5111,7.5155,7.5188,7.526,7.5304,7.5316,7.5362,7.5426,7.5477,7.555,7.5608,7.5726,7.5752,7.5818,7.581,7.5884,7.582,7.5816,7.5808,7.5803,7.5809,7.5895,7.5897,7.5899,7.59,0,7.5149,7.5156,7.5223,7.5293,7.5347,7.5402,7.5455,7.5491,7.5509,7.5561,7.5637,7.5683,7.5771,7.5842,7.5908,7.5935,7.5919,7.592,7.5939,7.5938,7.5928,7.5931,7.5718,7.5915,7.5913,7.5912,7.5911,7.5911,7.5268,7.5328,7.5381,7.5454,7.5495,7.5544,7.5602,7.5629,7.5693,7.5768,7.577,7.5852,7.5899,7.5986,7.6018,7.608,7.6056,7.6084,7.609,7.6096,7.6101,7.592,7.6092,7.6091,7.6091,7.6091,7.609,0,7.5435,7.5468,7.5536,7.561,7.5668,7.5651,7.5707,7.5755,7.5829,7.5876,7.5934,7.6019,7.6088,7.612,7.6187,7.623,7.6224,7.6247,7.6243,7.6248,7.6119,7.6096,7.625,7.625,7.625,7.625,7.625,7.625,7.5529,7.5629,7.5642,7.5761,7.5793,7.5875,7.5908,7.5952,7.5989,7.6086,7.6144,7.6165,7.6205,7.6275,7.6335,7.6343,7.6367,7.6392,7.6396,7.6274,7.6258,7.6242,7.622,7.6398,7.6398,7.6519,7.652,7.6521]}]]